Location: Laterina
(43.5167°N, 11.7167°E)
Time: 16:01:46
(UTC+00:00)

Cosmos 1340 Rocket - Pass Details

Date: 24 September 2020
Orbit: 529 x 558 km, 81.2° (Epoch: 25 October)

Event Time Altitude Azimuth Distance (km) Brightness Sun altitude
Exits shadow 19:15:11 33° 16° (NNE) 934 4.0 -23.6°
Drops below altitude 10° 19:17:28 10° 12° (NNE) 1,822 5.6 -24.0°
Sets 19:19:39 0° 12° (NNE) 2,725 6.5 -24.4°
